Time,TemperatureF,DewpointF,PressureIn,WindDirection,WindDirectionDegrees,WindSpeedMPH,WindSpeedGustMPH,Humidity,HourlyPrecipIn,Conditions,Clouds,dailyrainin,SoftwareType,DateUTC
2013-02-03 00:02:00,34.9,0.0,30.22,WSW,241,4.0,6.0,22,-99.99,,,-99.99,meteohub,2013-02-03 08:02:00,
2013-02-03 00:07:00,34.9,0.0,30.22,WSW,239,6.0,6.0,22,-99.99,,,-99.99,meteohub,2013-02-03 08:07:00,
2013-02-03 00:12:00,34.9,0.0,30.22,WSW,244,6.0,6.0,22,-99.99,,,-99.99,meteohub,2013-02-03 08:12:00,
2013-02-03 00:17:00,34.9,0.0,30.22,WSW,247,6.0,6.0,22,-99.99,,,-99.99,meteohub,2013-02-03 08:17:00,
2013-02-03 00:22:00,35.1,0.0,30.22,WSW,245,5.0,6.0,22,-99.99,,,-99.99,meteohub,2013-02-03 08:22:00,
2013-02-03 00:32:00,35.1,0.0,30.22,WSW,254,4.0,6.0,22,-99.99,,,-99.99,meteohub,2013-02-03 08:32:00,
2013-02-03 00:42:00,35.1,0.0,30.22,WSW,255,4.0,6.0,22,-99.99,,,-99.99,meteohub,2013-02-03 08:42:00,
2013-02-03 00:47:00,34.5,-0.4,30.22,West,271,3.0,6.0,22,-99.99,,,-99.99,meteohub,2013-02-03 08:47:00,
2013-02-03 00:52:00,34.0,-0.9,30.22,West,267,3.0,6.0,22,-99.99,,,-99.99,meteohub,2013-02-03 08:52:00,
2013-02-03 00:57:00,33.1,-0.8,30.18,West,264,4.0,4.0,23,-99.99,,,-99.99,meteohub,2013-02-03 08:57:00,
2013-02-03 01:02:00,32.0,-1.7,30.18,WSW,245,3.0,5.0,23,-99.99,,,-99.99,meteohub,2013-02-03 09:02:00,
2013-02-03 01:07:00,30.7,-2.7,30.18,SW,216,6.0,6.0,23,-99.99,,,-99.99,meteohub,2013-02-03 09:07:00,
2013-02-03 01:12:00,29.8,-3.5,30.18,SW,214,5.0,6.0,23,-99.99,,,-99.99,meteohub,2013-02-03 09:12:00,
2013-02-03 01:22:00,28.8,-4.4,30.18,SW,214,6.0,6.0,23,-99.99,,,-99.99,meteohub,2013-02-03 09:22:00,
2013-02-03 01:27:00,28.6,-4.5,30.18,SSW,212,4.0,6.0,23,-99.99,,,-99.99,meteohub,2013-02-03 09:27:00,
2013-02-03 01:32:00,28.8,-4.4,30.18,SW,225,4.0,6.0,23,-99.99,,,-99.99,meteohub,2013-02-03 09:32:00,
2013-02-03 01:37:00,29.1,-4.0,30.18,SW,225,6.0,6.0,23,-99.99,,,-99.99,meteohub,2013-02-03 09:37:00,
2013-02-03 01:42:00,29.5,-3.8,30.18,SW,225,3.0,6.0,23,-99.99,,,-99.99,meteohub,2013-02-03 09:42:00,
2013-02-03 01:47:00,29.5,-3.8,30.18,SW,220,5.0,6.0,23,-99.99,,,-99.99,meteohub,2013-02-03 09:47:00,
2013-02-03 01:52:00,29.5,-3.8,30.18,SW,222,0.0,6.0,23,-99.99,,,-99.99,meteohub,2013-02-03 09:52:00,
2013-02-03 02:02:00,28.6,-4.5,30.18,SW,219,0.0,6.0,23,-99.99,,,-99.99,meteohub,2013-02-03 10:02:00,
2013-02-03 02:07:00,28.4,-4.7,30.18,SSW,210,4.0,5.0,23,-99.99,,,-99.99,meteohub,2013-02-03 10:07:00,
2013-02-03 02:12:00,28.0,-5.1,30.18,SSW,210,0.0,4.0,23,-99.99,,,-99.99,meteohub,2013-02-03 10:12:00,
2013-02-03 02:17:00,27.9,-5.1,30.18,SW,214,3.0,4.0,23,-99.99,,,-99.99,meteohub,2013-02-03 10:17:00,
2013-02-03 02:22:00,27.7,-5.3,30.18,SSW,213,3.0,6.0,23,-99.99,,,-99.99,meteohub,2013-02-03 10:22:00,
2013-02-03 02:27:00,27.7,-5.3,30.18,SW,215,4.0,6.0,23,-99.99,,,-99.99,meteohub,2013-02-03 10:27:00,
2013-02-03 02:32:00,27.3,-5.6,30.18,SW,215,0.0,6.0,23,-99.99,,,-99.99,meteohub,2013-02-03 10:32:00,
2013-02-03 02:37:00,27.0,-6.0,30.18,SW,216,3.0,4.0,23,-99.99,,,-99.99,meteohub,2013-02-03 10:37:00,
2013-02-03 02:42:00,26.6,-5.3,30.18,SW,216,0.0,4.0,24,-99.99,,,-99.99,meteohub,2013-02-03 10:42:00,
2013-02-03 02:47:00,26.4,-5.4,30.18,SW,216,0.0,4.0,24,-99.99,,,-99.99,meteohub,2013-02-03 10:47:00,
2013-02-03 02:52:00,26.2,-5.6,30.18,SW,216,0.0,3.0,24,-99.99,,,-99.99,meteohub,2013-02-03 10:52:00,
2013-02-03 02:57:00,26.1,-5.8,30.18,SW,216,0.0,0.0,24,-99.99,,,-99.99,meteohub,2013-02-03 10:57:00,
2013-02-03 03:02:00,26.1,-5.8,30.18,SW,216,0.0,0.0,24,-99.99,,,-99.99,meteohub,2013-02-03 11:02:00,
2013-02-03 03:07:00,26.1,-5.8,30.18,SW,216,3.0,3.0,24,-99.99,,,-99.99,meteohub,2013-02-03 11:07:00,
2013-02-03 03:17:00,26.1,-5.8,30.18,WSW,254,3.0,4.0,24,-99.99,,,-99.99,meteohub,2013-02-03 11:17:00,
2013-02-03 03:27:00,25.9,-6.0,30.18,WSW,254,0.0,4.0,24,-99.99,,,-99.99,meteohub,2013-02-03 11:27:00,
2013-02-03 03:32:00,25.9,-6.0,30.18,WSW,253,0.0,3.0,24,-99.99,,,-99.99,meteohub,2013-02-03 11:32:00,
2013-02-03 03:37:00,26.1,-5.8,30.18,WSW,240,4.0,4.0,24,-99.99,,,-99.99,meteohub,2013-02-03 11:37:00,
2013-02-03 03:42:00,26.1,-5.8,30.14,SW,222,5.0,5.0,24,-99.99,,,-99.99,meteohub,2013-02-03 11:42:00,
2013-02-03 03:47:00,26.4,-5.4,30.14,SW,224,4.0,8.0,24,-99.99,,,-99.99,meteohub,2013-02-03 11:47:00,
2013-02-03 03:52:00,27.1,-5.8,30.14,WSW,240,4.0,8.0,23,-99.99,,,-99.99,meteohub,2013-02-03 11:52:00,
2013-02-03 03:57:00,28.0,-5.1,30.14,WSW,243,6.0,8.0,23,-99.99,,,-99.99,meteohub,2013-02-03 11:57:00,
2013-02-03 04:02:00,29.5,-3.8,30.14,West,260,5.0,11.0,23,-99.99,,,-99.99,meteohub,2013-02-03 12:02:00,
2013-02-03 04:07:00,31.1,-2.4,30.14,WSW,256,8.0,11.0,23,-99.99,,,-99.99,meteohub,2013-02-03 12:07:00,
2013-02-03 04:12:00,33.1,-0.8,30.14,SSW,206,7.0,11.0,23,-99.99,,,-99.99,meteohub,2013-02-03 12:12:00,
2013-02-03 04:17:00,33.1,-0.8,30.14,West,267,4.0,11.0,23,-99.99,,,-99.99,meteohub,2013-02-03 12:17:00,
2013-02-03 04:22:00,33.4,-0.4,30.14,West,271,5.0,11.0,23,-99.99,,,-99.99,meteohub,2013-02-03 12:22:00,
2013-02-03 04:27:00,34.3,-0.6,30.14,SW,233,6.0,9.0,22,-99.99,,,-99.99,meteohub,2013-02-03 12:27:00,
2013-02-03 04:32:00,35.1,0.0,30.14,WSW,257,4.0,10.0,22,-99.99,,,-99.99,meteohub,2013-02-03 12:32:00,
2013-02-03 04:37:00,35.4,0.3,30.14,West,261,4.0,10.0,22,-99.99,,,-99.99,meteohub,2013-02-03 12:37:00,
2013-02-03 04:42:00,35.8,0.7,30.14,West,260,4.0,10.0,22,-99.99,,,-99.99,meteohub,2013-02-03 12:42:00,
2013-02-03 04:47:00,36.1,0.9,30.14,WSW,254,6.0,8.0,22,-99.99,,,-99.99,meteohub,2013-02-03 12:47:00,
2013-02-03 04:52:00,36.1,0.9,30.14,West,266,5.0,8.0,22,-99.99,,,-99.99,meteohub,2013-02-03 12:52:00,
2013-02-03 04:57:00,36.1,0.9,30.14,West,261,5.0,7.0,22,-99.99,,,-99.99,meteohub,2013-02-03 12:57:00,
2013-02-03 05:02:00,36.0,0.9,30.14,WSW,257,6.0,6.0,22,-99.99,,,-99.99,meteohub,2013-02-03 13:02:00,
2013-02-03 05:07:00,35.8,0.7,30.14,West,279,4.0,6.0,22,-99.99,,,-99.99,meteohub,2013-02-03 13:07:00,
2013-02-03 05:17:00,35.4,0.3,30.14,West,265,5.0,6.0,22,-99.99,,,-99.99,meteohub,2013-02-03 13:17:00,
2013-02-03 05:22:00,35.6,0.5,30.14,West,269,4.0,5.0,22,-99.99,,,-99.99,meteohub,2013-02-03 13:22:00,
2013-02-03 05:27:00,35.6,0.5,30.14,West,273,4.0,6.0,22,-99.99,,,-99.99,meteohub,2013-02-03 13:27:00,
2013-02-03 05:32:00,35.4,0.3,30.14,West,270,4.0,6.0,22,-99.99,,,-99.99,meteohub,2013-02-03 13:32:00,
2013-02-03 05:42:00,34.7,-0.2,30.14,West,272,3.0,6.0,22,-99.99,,,-99.99,meteohub,2013-02-03 13:42:00,
2013-02-03 05:47:00,34.0,-0.9,30.14,West,272,4.0,6.0,22,-99.99,,,-99.99,meteohub,2013-02-03 13:47:00,
2013-02-03 05:52:00,33.4,-0.4,30.14,West,272,4.0,6.0,23,-99.99,,,-99.99,meteohub,2013-02-03 13:52:00,
2013-02-03 05:57:00,32.9,-0.9,30.14,West,272,4.0,5.0,23,-99.99,,,-99.99,meteohub,2013-02-03 13:57:00,
2013-02-03 06:02:00,32.5,-1.1,30.14,West,272,4.0,5.0,23,-99.99,,,-99.99,meteohub,2013-02-03 14:02:00,
2013-02-03 06:07:00,32.4,-1.3,30.14,West,268,4.0,6.0,23,-99.99,,,-99.99,meteohub,2013-02-03 14:07:00,
2013-02-03 06:17:00,32.5,-1.1,30.14,West,268,4.0,6.0,23,-99.99,,,-99.99,meteohub,2013-02-03 14:17:00,
2013-02-03 06:22:00,32.9,-0.9,30.14,WNW,290,3.0,5.0,23,-99.99,,,-99.99,meteohub,2013-02-03 14:22:00,
2013-02-03 06:27:00,33.3,-0.6,30.14,West,267,4.0,6.0,23,-99.99,,,-99.99,meteohub,2013-02-03 14:27:00,
2013-02-03 06:32:00,33.4,-0.4,30.14,WSW,254,6.0,6.0,23,-99.99,,,-99.99,meteohub,2013-02-03 14:32:00,
2013-02-03 06:37:00,34.0,-0.9,30.14,WSW,244,6.0,8.0,22,-99.99,,,-99.99,meteohub,2013-02-03 14:37:00,
2013-02-03 06:42:00,34.3,-0.6,30.14,WSW,242,6.0,8.0,22,-99.99,,,-99.99,meteohub,2013-02-03 14:42:00,
2013-02-03 06:47:00,34.5,-0.4,30.14,WSW,246,6.0,8.0,22,-99.99,,,-99.99,meteohub,2013-02-03 14:47:00,
2013-02-03 06:52:00,34.5,-0.4,30.14,WSW,247,5.0,8.0,22,-99.99,,,-99.99,meteohub,2013-02-03 14:52:00,
2013-02-03 06:57:00,34.3,-0.6,30.14,WSW,247,6.0,8.0,22,-99.99,,,-99.99,meteohub,2013-02-03 14:57:00,
2013-02-03 07:02:00,34.3,-0.6,30.14,WSW,244,6.0,8.0,22,-99.99,,,-99.99,meteohub,2013-02-03 15:02:00,
2013-02-03 07:07:00,34.3,-0.6,30.14,West,268,4.0,8.0,22,-99.99,,,-99.99,meteohub,2013-02-03 15:07:00,
2013-02-03 07:12:00,34.2,-0.8,30.14,WSW,258,5.0,8.0,22,-99.99,,,-99.99,meteohub,2013-02-03 15:12:00,
2013-02-03 07:17:00,33.4,-0.4,30.14,WSW,257,0.0,6.0,23,-99.99,,,-99.99,meteohub,2013-02-03 15:17:00,
2013-02-03 07:22:00,32.0,-1.7,30.14,WSW,257,0.0,6.0,23,-99.99,,,-99.99,meteohub,2013-02-03 15:22:00,
2013-02-03 07:32:00,29.1,-4.0,30.18,WSW,257,0.0,0.0,23,-99.99,,,-99.99,meteohub,2013-02-03 15:32:00,
2013-02-03 07:37:00,28.4,-4.7,30.18,WSW,257,0.0,0.0,23,-99.99,,,-99.99,meteohub,2013-02-03 15:37:00,
2013-02-03 07:42:00,28.2,-4.9,30.18,WSW,257,0.0,0.0,23,-99.99,,,-99.99,meteohub,2013-02-03 15:42:00,
2013-02-03 07:47:00,28.4,-4.7,30.18,WSW,257,0.0,0.0,23,-99.99,,,-99.99,meteohub,2013-02-03 15:47:00,
2013-02-03 07:52:00,28.6,-4.5,30.18,WSW,257,0.0,0.0,23,-99.99,,,-99.99,meteohub,2013-02-03 15:52:00,
2013-02-03 07:57:00,29.5,-3.8,30.18,WSW,257,0.0,0.0,23,-99.99,,,-99.99,meteohub,2013-02-03 15:57:00,
2013-02-03 08:02:00,30.0,-3.3,30.18,WSW,257,0.0,0.0,23,-99.99,,,-99.99,meteohub,2013-02-03 16:02:00,
2013-02-03 08:07:00,30.2,-3.1,30.18,WSW,257,0.0,0.0,23,-99.99,,,-99.99,meteohub,2013-02-03 16:07:00,
2013-02-03 08:12:00,30.2,-3.1,30.18,WSW,257,0.0,0.0,23,-99.99,,,-99.99,meteohub,2013-02-03 16:12:00,
2013-02-03 08:17:00,30.6,-2.9,30.18,WSW,257,0.0,0.0,23,-99.99,,,-99.99,meteohub,2013-02-03 16:17:00,
2013-02-03 08:22:00,31.3,-2.2,30.18,WSW,257,0.0,0.0,23,-99.99,,,-99.99,meteohub,2013-02-03 16:22:00,
2013-02-03 08:27:00,32.9,-0.9,30.18,WSW,257,0.0,0.0,23,-99.99,,,-99.99,meteohub,2013-02-03 16:27:00,
2013-02-03 08:32:00,34.9,0.0,30.18,WSW,257,0.0,0.0,22,-99.99,,,-99.99,meteohub,2013-02-03 16:32:00,
2013-02-03 08:37:00,36.5,1.2,30.18,WSW,257,0.0,0.0,22,-99.99,,,-99.99,meteohub,2013-02-03 16:37:00,
2013-02-03 08:47:00,38.7,2.1,30.18,WSW,257,0.0,0.0,21,-99.99,,,-99.99,meteohub,2013-02-03 16:47:00,
2013-02-03 08:57:00,40.5,3.6,30.18,WSW,257,0.0,0.0,21,-99.99,,,-99.99,meteohub,2013-02-03 16:57:00,
2013-02-03 09:02:00,41.4,4.3,30.18,WSW,257,0.0,0.0,21,-99.99,,,-99.99,meteohub,2013-02-03 17:02:00,
2013-02-03 09:07:00,41.5,4.5,30.18,WSW,257,0.0,0.0,21,-99.99,,,-99.99,meteohub,2013-02-03 17:07:00,
2013-02-03 09:12:00,42.1,5.0,30.18,WSW,257,0.0,0.0,21,-99.99,,,-99.99,meteohub,2013-02-03 17:12:00,
2013-02-03 09:17:00,42.4,5.2,30.18,WSW,253,0.0,0.0,21,-99.99,,,-99.99,meteohub,2013-02-03 17:17:00,
2013-02-03 09:22:00,42.4,5.2,30.18,East,87,0.0,0.0,21,-99.99,,,-99.99,meteohub,2013-02-03 17:22:00,
2013-02-03 09:27:00,42.6,5.4,30.18,East,98,0.0,0.0,21,-99.99,,,-99.99,meteohub,2013-02-03 17:27:00,
2013-02-03 09:32:00,43.0,4.6,30.18,SE,124,0.0,0.0,20,-99.99,,,-99.99,meteohub,2013-02-03 17:32:00,
2013-02-03 09:37:00,43.3,5.0,30.18,SE,125,0.0,0.0,20,-99.99,,,-99.99,meteohub,2013-02-03 17:37:00,
2013-02-03 09:47:00,43.5,5.0,30.18,ENE,78,0.0,0.0,20,-99.99,,,-99.99,meteohub,2013-02-03 17:47:00,
2013-02-03 09:52:00,43.3,5.0,30.18,East,90,0.0,0.0,20,-99.99,,,-99.99,meteohub,2013-02-03 17:52:00,
2013-02-03 09:57:00,43.5,5.0,30.18,SE,127,0.0,0.0,20,-99.99,,,-99.99,meteohub,2013-02-03 17:57:00,
2013-02-03 10:02:00,44.1,5.5,30.18,SE,127,0.0,0.0,20,-99.99,,,-99.99,meteohub,2013-02-03 18:02:00,
2013-02-03 10:07:00,44.2,5.7,30.18,SE,126,0.0,0.0,20,-99.99,,,-99.99,meteohub,2013-02-03 18:07:00,
2013-02-03 10:12:00,44.2,5.7,30.18,East,88,0.0,0.0,20,-99.99,,,-99.99,meteohub,2013-02-03 18:12:00,
2013-02-03 10:17:00,44.2,5.7,30.18,ENE,64,0.0,0.0,20,-99.99,,,-99.99,meteohub,2013-02-03 18:17:00,
2013-02-03 10:22:00,44.1,5.5,30.18,ESE,102,0.0,0.0,20,-99.99,,,-99.99,meteohub,2013-02-03 18:22:00,
2013-02-03 10:27:00,44.1,5.5,30.18,ESE,117,0.0,0.0,20,-99.99,,,-99.99,meteohub,2013-02-03 18:27:00,
2013-02-03 10:32:00,43.5,5.0,30.18,ESE,116,0.0,0.0,20,-99.99,,,-99.99,meteohub,2013-02-03 18:32:00,
2013-02-03 10:37:00,42.8,4.5,30.18,ESE,110,0.0,0.0,20,-99.99,,,-99.99,meteohub,2013-02-03 18:37:00,
2013-02-03 10:42:00,42.3,5.2,30.18,ESE,111,0.0,0.0,21,-99.99,,,-99.99,meteohub,2013-02-03 18:42:00,
2013-02-03 10:47:00,42.3,5.2,30.18,ENE,58,0.0,0.0,21,-99.99,,,-99.99,meteohub,2013-02-03 18:47:00,
2013-02-03 10:52:00,41.9,4.8,30.18,East,83,0.0,0.0,21,-99.99,,,-99.99,meteohub,2013-02-03 18:52:00,
2013-02-03 11:02:00,41.7,4.6,30.18,East,79,0.0,0.0,21,-99.99,,,-99.99,meteohub,2013-02-03 19:02:00,
2013-02-03 11:07:00,41.7,4.6,30.18,ENE,59,0.0,0.0,21,-99.99,,,-99.99,meteohub,2013-02-03 19:07:00,
2013-02-03 11:12:00,41.9,4.8,30.18,SE,143,0.0,0.0,21,-99.99,,,-99.99,meteohub,2013-02-03 19:12:00,
2013-02-03 11:22:00,42.1,5.0,30.18,ENE,78,0.0,0.0,21,-99.99,,,-99.99,meteohub,2013-02-03 19:22:00,
2013-02-03 11:27:00,42.4,5.2,30.18,ESE,103,0.0,0.0,21,-99.99,,,-99.99,meteohub,2013-02-03 19:27:00,
2013-02-03 11:32:00,42.6,5.4,30.18,ENE,69,0.0,0.0,21,-99.99,,,-99.99,meteohub,2013-02-03 19:32:00,
2013-02-03 11:37:00,42.8,4.5,30.18,SE,127,0.0,0.0,20,-99.99,,,-99.99,meteohub,2013-02-03 19:37:00,
2013-02-03 11:42:00,42.8,4.5,30.18,SE,128,0.0,0.0,20,-99.99,,,-99.99,meteohub,2013-02-03 19:42:00,
2013-02-03 11:52:00,43.0,4.6,30.18,NE,43,0.0,0.0,20,-99.99,,,-99.99,meteohub,2013-02-03 19:52:00,
2013-02-03 11:57:00,43.0,4.6,30.18,ESE,109,0.0,0.0,20,-99.99,,,-99.99,meteohub,2013-02-03 19:57:00,
2013-02-03 12:02:00,43.0,4.6,30.18,ESE,119,0.0,0.0,20,-99.99,,,-99.99,meteohub,2013-02-03 20:02:00,
2013-02-03 12:07:00,42.8,4.5,30.18,East,100,0.0,0.0,20,-99.99,,,-99.99,meteohub,2013-02-03 20:07:00,
2013-02-03 12:12:00,42.8,4.5,30.14,NE,55,0.0,0.0,20,-99.99,,,-99.99,meteohub,2013-02-03 20:12:00,
2013-02-03 12:17:00,42.8,4.5,30.14,ESE,114,0.0,0.0,20,-99.99,,,-99.99,meteohub,2013-02-03 20:17:00,
2013-02-03 12:22:00,42.6,5.4,30.14,East,92,0.0,0.0,21,-99.99,,,-99.99,meteohub,2013-02-03 20:22:00,
2013-02-03 12:32:00,42.8,4.5,30.14,ENE,64,0.0,0.0,20,-99.99,,,-99.99,meteohub,2013-02-03 20:32:00,
2013-02-03 12:37:00,42.6,5.4,30.14,SSE,153,0.0,0.0,21,-99.99,,,-99.99,meteohub,2013-02-03 20:37:00,
2013-02-03 12:42:00,42.8,4.5,30.14,NE,51,0.0,0.0,20,-99.99,,,-99.99,meteohub,2013-02-03 20:42:00,
2013-02-03 12:47:00,42.8,4.5,30.14,ENE,61,0.0,0.0,20,-99.99,,,-99.99,meteohub,2013-02-03 20:47:00,
2013-02-03 12:52:00,43.0,4.6,30.14,East,95,0.0,0.0,20,-99.99,,,-99.99,meteohub,2013-02-03 20:52:00,
2013-02-03 13:02:00,43.0,4.6,30.14,NE,39,0.0,0.0,20,-99.99,,,-99.99,meteohub,2013-02-03 21:02:00,
2013-02-03 13:12:00,43.5,5.0,30.14,ENE,75,0.0,0.0,20,-99.99,,,-99.99,meteohub,2013-02-03 21:12:00,
2013-02-03 13:17:00,43.5,5.0,30.14,East,90,0.0,0.0,20,-99.99,,,-99.99,meteohub,2013-02-03 21:17:00,
2013-02-03 13:22:00,43.5,5.0,30.14,South,177,0.0,0.0,20,-99.99,,,-99.99,meteohub,2013-02-03 21:22:00,
2013-02-03 13:27:00,43.5,5.0,30.14,East,86,0.0,0.0,20,-99.99,,,-99.99,meteohub,2013-02-03 21:27:00,
2013-02-03 13:32:00,43.5,5.0,30.14,ESE,106,0.0,0.0,20,-99.99,,,-99.99,meteohub,2013-02-03 21:32:00,
2013-02-03 13:37:00,43.3,5.0,30.14,ENE,71,0.0,0.0,20,-99.99,,,-99.99,meteohub,2013-02-03 21:37:00,
2013-02-03 13:42:00,43.3,5.0,30.14,SE,130,0.0,0.0,20,-99.99,,,-99.99,meteohub,2013-02-03 21:42:00,
2013-02-03 13:47:00,43.3,5.0,30.14,SE,138,0.0,0.0,20,-99.99,,,-99.99,meteohub,2013-02-03 21:47:00,
2013-02-03 13:52:00,43.5,5.0,30.14,ENE,62,0.0,0.0,20,-99.99,,,-99.99,meteohub,2013-02-03 21:52:00,
2013-02-03 13:57:00,43.5,5.0,30.14,NE,49,0.0,0.0,20,-99.99,,,-99.99,meteohub,2013-02-03 21:57:00,
2013-02-03 14:02:00,43.7,5.2,30.14,ESE,117,0.0,0.0,20,-99.99,,,-99.99,meteohub,2013-02-03 22:02:00,
2013-02-03 14:07:00,43.7,5.2,30.14,ESE,123,0.0,0.0,20,-99.99,,,-99.99,meteohub,2013-02-03 22:07:00,
2013-02-03 14:12:00,43.9,5.4,30.14,NE,40,0.0,0.0,20,-99.99,,,-99.99,meteohub,2013-02-03 22:12:00,
2013-02-03 14:17:00,44.1,5.5,30.14,NE,56,0.0,0.0,20,-99.99,,,-99.99,meteohub,2013-02-03 22:17:00,
2013-02-03 14:22:00,44.1,5.5,30.14,ENE,71,0.0,0.0,20,-99.99,,,-99.99,meteohub,2013-02-03 22:22:00,
2013-02-03 14:27:00,44.1,5.5,30.14,North,2,0.0,0.0,20,-99.99,,,-99.99,meteohub,2013-02-03 22:27:00,
2013-02-03 14:32:00,44.2,5.7,30.14,East,83,0.0,0.0,20,-99.99,,,-99.99,meteohub,2013-02-03 22:32:00,
2013-02-03 14:37:00,44.1,5.5,30.14,North,353,0.0,0.0,20,-99.99,,,-99.99,meteohub,2013-02-03 22:37:00,
2013-02-03 14:42:00,44.1,5.5,30.14,North,357,0.0,0.0,20,-99.99,,,-99.99,meteohub,2013-02-03 22:42:00,
2013-02-03 14:47:00,43.9,5.4,30.14,NNE,17,0.0,0.0,20,-99.99,,,-99.99,meteohub,2013-02-03 22:47:00,
2013-02-03 14:52:00,43.7,5.2,30.14,NNE,27,0.0,0.0,20,-99.99,,,-99.99,meteohub,2013-02-03 22:52:00,
2013-02-03 14:57:00,43.7,5.2,30.14,ESE,121,0.0,0.0,20,-99.99,,,-99.99,meteohub,2013-02-03 22:57:00,
2013-02-03 15:02:00,43.5,5.0,30.14,NNE,29,0.0,0.0,20,-99.99,,,-99.99,meteohub,2013-02-03 23:02:00,
2013-02-03 15:07:00,43.3,5.0,30.14,NNE,22,0.0,0.0,20,-99.99,,,-99.99,meteohub,2013-02-03 23:07:00,
2013-02-03 15:12:00,43.3,5.0,30.14,NNE,32,0.0,0.0,20,-99.99,,,-99.99,meteohub,2013-02-03 23:12:00,
2013-02-03 15:17:00,43.3,5.0,30.14,NE,53,0.0,0.0,20,-99.99,,,-99.99,meteohub,2013-02-03 23:17:00,
2013-02-03 15:22:00,43.2,4.8,30.14,NE,46,0.0,0.0,20,-99.99,,,-99.99,meteohub,2013-02-03 23:22:00,
2013-02-03 15:27:00,43.0,4.6,30.14,East,88,0.0,0.0,20,-99.99,,,-99.99,meteohub,2013-02-03 23:27:00,
2013-02-03 15:32:00,43.0,4.6,30.14,NE,49,0.0,0.0,20,-99.99,,,-99.99,meteohub,2013-02-03 23:32:00,
2013-02-03 15:37:00,42.8,4.5,30.14,East,91,0.0,0.0,20,-99.99,,,-99.99,meteohub,2013-02-03 23:37:00,
2013-02-03 15:47:00,42.6,5.4,30.14,ENE,58,0.0,0.0,21,-99.99,,,-99.99,meteohub,2013-02-03 23:47:00,
2013-02-03 15:52:00,42.4,5.2,30.14,East,83,0.0,0.0,21,-99.99,,,-99.99,meteohub,2013-02-03 23:52:00,
2013-02-03 15:57:00,42.4,5.2,30.14,NE,46,0.0,0.0,21,-99.99,,,-99.99,meteohub,2013-02-03 23:57:00,
2013-02-03 16:02:00,42.3,5.2,30.14,NNE,23,0.0,0.0,21,-99.99,,,-99.99,meteohub,2013-02-04 00:02:00,
2013-02-03 16:07:00,41.7,4.6,30.14,ENE,64,0.0,0.0,21,-99.99,,,-99.99,meteohub,2013-02-04 00:07:00,
2013-02-03 16:12:00,41.2,4.1,30.14,North,353,0.0,0.0,21,-99.99,,,-99.99,meteohub,2013-02-04 00:12:00,
2013-02-03 16:22:00,40.3,3.4,30.14,North,7,0.0,0.0,21,-99.99,,,-99.99,meteohub,2013-02-04 00:22:00,
2013-02-03 16:27:00,39.9,3.2,30.14,North,353,0.0,0.0,21,-99.99,,,-99.99,meteohub,2013-02-04 00:27:00,
2013-02-03 16:37:00,38.5,1.9,30.14,NNW,345,0.0,0.0,21,-99.99,,,-99.99,meteohub,2013-02-04 00:37:00,
2013-02-03 16:42:00,37.9,1.4,30.14,NNW,336,0.0,0.0,21,-99.99,,,-99.99,meteohub,2013-02-04 00:42:00,
2013-02-03 16:47:00,37.6,1.2,30.14,North,350,0.0,0.0,21,-99.99,,,-99.99,meteohub,2013-02-04 00:47:00,
2013-02-03 16:52:00,37.2,1.9,30.14,North,350,0.0,0.0,22,-99.99,,,-99.99,meteohub,2013-02-04 00:52:00,
2013-02-03 16:57:00,36.7,1.4,30.14,North,350,0.0,0.0,22,-99.99,,,-99.99,meteohub,2013-02-04 00:57:00,
2013-02-03 17:02:00,36.0,0.9,30.14,North,350,0.0,0.0,22,-99.99,,,-99.99,meteohub,2013-02-04 01:02:00,
2013-02-03 17:12:00,34.7,-0.2,30.14,North,350,0.0,0.0,22,-99.99,,,-99.99,meteohub,2013-02-04 01:12:00,
2013-02-03 17:17:00,34.0,-0.9,30.14,North,350,0.0,0.0,22,-99.99,,,-99.99,meteohub,2013-02-04 01:17:00,
2013-02-03 17:22:00,33.3,-0.6,30.14,NNW,344,0.0,0.0,23,-99.99,,,-99.99,meteohub,2013-02-04 01:22:00,
2013-02-03 17:27:00,32.7,-0.9,30.14,NNW,344,0.0,0.0,23,-99.99,,,-99.99,meteohub,2013-02-04 01:27:00,
2013-02-03 17:32:00,32.5,-1.1,30.14,NNW,344,0.0,0.0,23,-99.99,,,-99.99,meteohub,2013-02-04 01:32:00,
2013-02-03 17:37:00,32.2,-1.5,30.14,NNW,344,0.0,0.0,23,-99.99,,,-99.99,meteohub,2013-02-04 01:37:00,
2013-02-03 17:42:00,32.2,-1.5,30.10,NNW,344,0.0,0.0,23,-99.99,,,-99.99,meteohub,2013-02-04 01:42:00,
2013-02-03 17:52:00,32.0,-1.7,30.10,NNW,344,0.0,0.0,23,-99.99,,,-99.99,meteohub,2013-02-04 01:52:00,
2013-02-03 17:57:00,32.0,0.1,30.14,NNW,344,0.0,0.0,25,-99.99,,,-99.99,meteohub,2013-02-04 01:57:00,
2013-02-03 18:02:00,31.8,0.0,30.14,NNW,344,0.0,0.0,25,-99.99,,,-99.99,meteohub,2013-02-04 02:02:00,
2013-02-03 18:07:00,31.8,0.0,30.14,NNW,344,0.0,0.0,25,-99.99,,,-99.99,meteohub,2013-02-04 02:07:00,
2013-02-03 18:12:00,31.8,0.0,30.14,NNW,344,0.0,0.0,25,-99.99,,,-99.99,meteohub,2013-02-04 02:12:00,
2013-02-03 18:17:00,31.6,-0.2,30.14,NNW,344,0.0,0.0,25,-99.99,,,-99.99,meteohub,2013-02-04 02:17:00,
2013-02-03 18:22:00,31.5,-0.4,30.14,NNW,344,0.0,0.0,25,-99.99,,,-99.99,meteohub,2013-02-04 02:22:00,
2013-02-03 18:27:00,31.1,-0.6,30.14,NNW,344,0.0,0.0,25,-99.99,,,-99.99,meteohub,2013-02-04 02:27:00,
2013-02-03 18:32:00,30.7,-0.9,30.14,NNW,344,0.0,0.0,25,-99.99,,,-99.99,meteohub,2013-02-04 02:32:00,
2013-02-03 18:37:00,30.4,1.2,30.14,NNW,344,0.0,0.0,28,-99.99,,,-99.99,meteohub,2013-02-04 02:37:00,
2013-02-03 18:42:00,30.2,1.0,30.14,NNW,344,0.0,0.0,28,-99.99,,,-99.99,meteohub,2013-02-04 02:42:00,
2013-02-03 18:47:00,30.2,1.0,30.14,NNW,344,0.0,0.0,28,-99.99,,,-99.99,meteohub,2013-02-04 02:47:00,
2013-02-03 18:52:00,30.2,2.5,30.14,North,4,0.0,0.0,30,-99.99,,,-99.99,meteohub,2013-02-04 02:52:00,
2013-02-03 18:57:00,30.4,2.7,30.14,North,4,0.0,0.0,30,-99.99,,,-99.99,meteohub,2013-02-04 02:57:00,
2013-02-03 19:02:00,30.4,2.7,30.14,North,4,0.0,0.0,30,-99.99,,,-99.99,meteohub,2013-02-04 03:02:00,
2013-02-03 19:07:00,30.2,2.5,30.14,North,4,0.0,0.0,30,-99.99,,,-99.99,meteohub,2013-02-04 03:07:00,
2013-02-03 19:12:00,30.2,2.5,30.14,North,4,0.0,0.0,30,-99.99,,,-99.99,meteohub,2013-02-04 03:12:00,
2013-02-03 19:17:00,30.0,2.3,30.14,North,4,0.0,0.0,30,-99.99,,,-99.99,meteohub,2013-02-04 03:17:00,
2013-02-03 19:22:00,29.8,2.1,30.14,North,4,0.0,0.0,30,-99.99,,,-99.99,meteohub,2013-02-04 03:22:00,
2013-02-03 19:27:00,29.5,1.9,30.14,North,4,0.0,0.0,30,-99.99,,,-99.99,meteohub,2013-02-04 03:27:00,
2013-02-03 19:32:00,29.3,1.8,30.14,North,4,0.0,0.0,30,-99.99,,,-99.99,meteohub,2013-02-04 03:32:00,
2013-02-03 19:37:00,28.8,1.2,30.14,North,4,0.0,0.0,30,-99.99,,,-99.99,meteohub,2013-02-04 03:37:00,
2013-02-03 19:42:00,28.4,1.6,30.14,North,4,0.0,0.0,31,-99.99,,,-99.99,meteohub,2013-02-04 03:42:00,
2013-02-03 19:47:00,28.0,1.2,30.14,North,4,0.0,0.0,31,-99.99,,,-99.99,meteohub,2013-02-04 03:47:00,
2013-02-03 19:52:00,27.9,1.2,30.14,North,4,0.0,0.0,31,-99.99,,,-99.99,meteohub,2013-02-04 03:52:00,
2013-02-03 19:57:00,27.7,1.0,30.14,North,4,0.0,0.0,31,-99.99,,,-99.99,meteohub,2013-02-04 03:57:00,
2013-02-03 20:02:00,27.5,0.9,30.14,North,4,0.0,0.0,31,-99.99,,,-99.99,meteohub,2013-02-04 04:02:00,
2013-02-03 20:07:00,27.3,0.7,30.14,North,4,0.0,0.0,31,-99.99,,,-99.99,meteohub,2013-02-04 04:07:00,
2013-02-03 20:17:00,27.1,0.5,30.14,North,4,0.0,0.0,31,-99.99,,,-99.99,meteohub,2013-02-04 04:17:00,
2013-02-03 20:22:00,27.0,0.3,30.14,North,4,0.0,0.0,31,-99.99,,,-99.99,meteohub,2013-02-04 04:22:00,
2013-02-03 20:27:00,27.0,0.3,30.14,North,4,0.0,0.0,31,-99.99,,,-99.99,meteohub,2013-02-04 04:27:00,
2013-02-03 20:32:00,26.8,0.1,30.14,North,4,0.0,0.0,31,-99.99,,,-99.99,meteohub,2013-02-04 04:32:00,
2013-02-03 20:37:00,27.0,0.3,30.14,North,4,0.0,0.0,31,-99.99,,,-99.99,meteohub,2013-02-04 04:37:00,
2013-02-03 20:42:00,27.1,0.5,30.18,North,4,0.0,0.0,31,-99.99,,,-99.99,meteohub,2013-02-04 04:42:00,
2013-02-03 20:47:00,27.0,0.3,30.18,North,4,0.0,0.0,31,-99.99,,,-99.99,meteohub,2013-02-04 04:47:00,
2013-02-03 20:52:00,27.0,0.3,30.18,North,4,0.0,0.0,31,-99.99,,,-99.99,meteohub,2013-02-04 04:52:00,
2013-02-03 21:02:00,26.8,0.1,30.18,North,4,0.0,0.0,31,-99.99,,,-99.99,meteohub,2013-02-04 05:02:00,
2013-02-03 21:07:00,26.6,0.7,30.18,North,4,0.0,0.0,32,-99.99,,,-99.99,meteohub,2013-02-04 05:07:00,
2013-02-03 21:12:00,26.6,0.7,30.18,North,4,0.0,0.0,32,-99.99,,,-99.99,meteohub,2013-02-04 05:12:00,
2013-02-03 21:17:00,26.4,0.5,30.18,North,4,0.0,0.0,32,-99.99,,,-99.99,meteohub,2013-02-04 05:17:00,
2013-02-03 21:22:00,26.4,0.5,30.18,North,4,0.0,0.0,32,-99.99,,,-99.99,meteohub,2013-02-04 05:22:00,
2013-02-03 21:27:00,26.2,0.3,30.18,North,4,0.0,0.0,32,-99.99,,,-99.99,meteohub,2013-02-04 05:27:00,
2013-02-03 21:32:00,26.2,0.3,30.18,North,4,0.0,0.0,32,-99.99,,,-99.99,meteohub,2013-02-04 05:32:00,
2013-02-03 21:42:00,26.2,0.3,30.14,North,4,0.0,0.0,32,-99.99,,,-99.99,meteohub,2013-02-04 05:42:00,
2013-02-03 21:47:00,26.2,0.3,30.14,North,4,0.0,0.0,32,-99.99,,,-99.99,meteohub,2013-02-04 05:47:00,
2013-02-03 21:52:00,26.2,-0.2,30.14,North,4,0.0,0.0,31,-99.99,,,-99.99,meteohub,2013-02-04 05:52:00,
2013-02-03 21:57:00,26.2,-0.2,30.14,North,0,0.0,0.0,31,-99.99,,,-99.99,meteohub,2013-02-04 05:57:00,
2013-02-03 22:02:00,26.1,-0.4,30.14,NNW,345,0.0,0.0,31,-99.99,,,-99.99,meteohub,2013-02-04 06:02:00,
2013-02-03 22:07:00,26.1,-0.4,30.14,NNW,343,0.0,0.0,31,-99.99,,,-99.99,meteohub,2013-02-04 06:07:00,
2013-02-03 22:12:00,25.9,0.1,30.14,NNW,343,0.0,0.0,32,-99.99,,,-99.99,meteohub,2013-02-04 06:12:00,
2013-02-03 22:17:00,25.9,0.1,30.14,NNW,343,0.0,0.0,32,-99.99,,,-99.99,meteohub,2013-02-04 06:17:00,
2013-02-03 22:27:00,25.7,0.0,30.14,West,278,0.0,0.0,32,-99.99,,,-99.99,meteohub,2013-02-04 06:27:00,
2013-02-03 22:32:00,25.5,-0.2,30.14,West,278,0.0,0.0,32,-99.99,,,-99.99,meteohub,2013-02-04 06:32:00,
2013-02-03 22:37:00,25.7,0.0,30.14,West,278,0.0,0.0,32,-99.99,,,-99.99,meteohub,2013-02-04 06:37:00,
2013-02-03 22:42:00,25.9,0.1,30.14,West,278,0.0,0.0,32,-99.99,,,-99.99,meteohub,2013-02-04 06:42:00,
2013-02-03 22:52:00,25.5,-0.9,30.14,West,278,0.0,0.0,31,-99.99,,,-99.99,meteohub,2013-02-04 06:52:00,
2013-02-03 22:57:00,25.7,-0.8,30.14,West,278,0.0,0.0,31,-99.99,,,-99.99,meteohub,2013-02-04 06:57:00,
2013-02-03 23:02:00,25.7,-2.2,30.14,West,278,0.0,0.0,29,-99.99,,,-99.99,meteohub,2013-02-04 07:02:00,
2013-02-03 23:07:00,25.5,-2.4,30.14,West,277,0.0,0.0,29,-99.99,,,-99.99,meteohub,2013-02-04 07:07:00,
2013-02-03 23:12:00,25.3,-4.7,30.18,West,277,0.0,0.0,26,-99.99,,,-99.99,meteohub,2013-02-04 07:12:00,
2013-02-03 23:22:00,25.2,-4.9,30.18,West,277,0.0,0.0,26,-99.99,,,-99.99,meteohub,2013-02-04 07:22:00,
2013-02-03 23:27:00,25.0,-5.1,30.14,West,277,0.0,0.0,26,-99.99,,,-99.99,meteohub,2013-02-04 07:27:00,
2013-02-03 23:32:00,25.0,-5.1,30.14,West,277,0.0,0.0,26,-99.99,,,-99.99,meteohub,2013-02-04 07:32:00,
2013-02-03 23:37:00,24.6,-4.5,30.14,West,277,0.0,0.0,27,-99.99,,,-99.99,meteohub,2013-02-04 07:37:00,
2013-02-03 23:42:00,24.6,-4.5,30.18,West,277,0.0,0.0,27,-99.99,,,-99.99,meteohub,2013-02-04 07:42:00,
2013-02-03 23:47:00,24.6,-4.5,30.18,West,277,0.0,0.0,27,-99.99,,,-99.99,meteohub,2013-02-04 07:47:00,
2013-02-03 23:52:00,24.4,-4.7,30.18,West,277,0.0,0.0,27,-99.99,,,-99.99,meteohub,2013-02-04 07:52:00,
2013-02-03 23:57:00,24.6,-4.5,30.14,West,277,0.0,0.0,27,-99.99,,,-99.99,meteohub,2013-02-04 07:57:00,